Regional Weather Roundup
Issued by NWS

Home | Current Version | Previous Version | Graphics & Text | Print | Product List | Glossary On
Versions: 1 2 3 4 5 6 7 8 9 10 11 12 13 14 15 16 17 18 19 20 21 22 23 24 25 26 27 28 29 30 31 32 33 34 35 36 37 38 39 40 41 42 43 44 45 46 47 48 49 50
000
ASUS43 KLSX 282310
RWRMO

WEATHER SUMMARY FOR MISSOURI
NATIONAL WEATHER SERVICE SPRINGFIELD MO
600 PM CDT TUE MAR 28 2017

NOTE: "FAIR" INDICATES FEW OR NO CLOUDS BELOW 12,000 FEET WITH NO
       SIGNIFICANT WEATHER AND/OR OBSTRUCTIONS TO VISIBILITY.
       CURRENT SKY AND/OR WEATHER CONDITIONS ARE NOT AVAILABLE FOR
       CHILLICOTHE AND FARMINGTON.

MOZ001>031-035>038-043-044-053-054-290000-
...NORTHERN AND WESTERN MISSOURI...

CITY           SKY/WX    TMP DP  RH WIND       PRES   REMARKS
KANSAS CTY INT CLOUDY    53  50  89 E10       30.02R
KANSAS C DTWN  CLOUDY    54  50  86 NE12      30.00R
LEE`S SUMMIT   CLOUDY    53  51  93 E10       30.01R
ST JOSEPH      CLOUDY    53  49  86 E12       30.03R
CHILLICOTHE      N/A     54  49  83 E8        30.06S
KIRKSVILLE     CLOUDY    52  48  86 NE10      30.07F

$$
MOZ066>068-077>081-088>096-101>105-290000-
...SOUTHWEST MISSOURI...

CITY           SKY/WX    TMP DP  RH WIND       PRES   REMARKS
SPRINGFIELD    SUNNY     67  50  54 E13       29.91S
JOPLIN         SUNNY     67  53  61 NE10      29.90R
BRANSON        MOSUNNY   68  52  56 E10       29.92S

$$
MOZ032>034-039>042-045>050-055>058-069>072-290000-
...CENTRAL MISSOURI...

CITY           SKY/WX    TMP DP  RH WIND       PRES   REMARKS
COLUMBIA       CLOUDY    58  51  78 E9        30.03S
JEFFERSON CITY CLOUDY    60  49  66 E9        30.03S
ROLLA          CLOUDY    56  50  80 NE10G30   30.01F
SEDALIA        CLOUDY    57  51  80 E10       30.01F
WHITEMAN AFB   CLOUDY    56  56  99 E12       29.99S
WARRENSBURG    CLOUDY    55  50  82 NE13      30.00S
OSAGE BEACH    CLOUDY    59  50  72 E10       30.00F

$$
MOZ051-052-059>065-290000-
...EAST CENTRAL MISSOURI...

CITY           SKY/WX    TMP DP  RH WIND       PRES   REMARKS
ST LOUIS INTL  CLOUDY    59  48  67 NE9       30.07R
SPIRIT OF STL  CLOUDY    58  50  75 NE6       30.06R
ST CHARLES     CLOUDY    57  50  77 NE8       30.07R

$$
MOZ072>076-082>087-097>100-106>115-290000-
...SOUTH CENTRAL AND SOUTHEAST MISSOURI...

CITY           SKY/WX    TMP DP  RH WIND       PRES   REMARKS
CAPE GIRARDEAU CLOUDY    59  50  72 NE6       30.03S
FARMINGTON     CLOUDY    56  50  80 NE9       30.05R
POPLAR BLUFF   PTSUNNY   62  52  69 E10       30.00S
WEST PLAINS    SUNNY     66  49  54 E8        29.97S

$$




USA.gov is the U.S. government's official web portal to all federal, state and local government web resources and services.